Погода в Заречье

Россия / Новосибирская область     55°42′24″N   76°44′04″E
темп.,
°C
ветер,
м/с
пор.,
м/с
влажн.,
%
обл.,
%
осадки,
мм/ч
давл.,
гПа
погр.,
м
2 августа, пн
пн201:00+17ююв346572 0.0 100857
04:00+15ююз359088 1.1 100775
07:00+16ю499478 2.8 1006206
10:00+20зюз45790 1.2 1005435
13:00+26з575932 1.4 10041478
16:00+27зсз684834 1.2 10042205
19:00+24сз69599 1.5 10051102
22:00+19сз358210 0.0 100679
3 августа, вт
вт301:00+16зсз3387100 0.1 100641
04:00+16зсз3486100 0.0 100684
07:00+15зсз379174 0.0 1007146
10:00+18зсз487365 0.0 1008428
13:00+23сз6848100 0.1 10081760
16:00+22сз584632 0.0 1008681
19:00+19з596657 0.2 1008387
22:00+15вюв0185100 0.3 100712
4 августа, ср
ср401:00+15ссв1186100 0.6 100713
04:00+14св119693 1.9 100753
07:00+14в239758 6.9 1008108
10:00+15с239498 0.2 1008327
13:00+16св349063 0.6 1008438
16:00+18с457936 0.2 1008638
19:00+20с566637 0.3 10091168
22:00+15ссз34915 0.4 100965
5 августа, чт
чт501:00+14ссз35945 0.5 100974
04:00+13ссз34955 0.0 100979
07:00+13ссз379750 0.0 1010153
10:00+18ссз45785 0.0 1009474
13:00+22ссз446139 0.1 10091316
16:00+24ссз444952 0.1 10081806
19:00+21ссз477558 1.3 1009564
22:00+17сз33875 0.9 100940
6 августа, пт
пт601:00+15сз229023 0.9 100825
04:00+14зсз339219 0.0 100837
07:00+14зсз35945 0.0 100996
10:00+19ссз348042 0.0 1009424
13:00+23сз455923 0.1 10081384
16:00+26ссз454799 0.1 10072064
19:00+23св116590 0.3 100872
22:00+19всв227878 0.0 100818